BAW292 EDDN-EDDL

Flight info

Callsign BAW292
Flight time N/A
Altitude 24000
Route SULUS1G SULUS L604 MASEK Z52 ARPEG Z850 ADEMI T854 DOMUX DOMUX1A
Aircraft B738/M-SDE2E3FGHIRWXY/LB1

Departure

Time N/A
Airport Nuremberg Airport (EDDN)

Arrival

Time 2026-05-04 23:27
Airport Düsseldorf Airport (EDDL)
Time Latitude Longitude Altitude Speed Heading
2026-05-04 22:55 50.27707 10.39890 24004 ft 411 kts 314°
2026-05-04 22:55 50.30386 10.35630 24001 ft 411 kts 314°
2026-05-04 22:55 50.32388 10.32426 24000 ft 411 kts 314°
2026-05-04 22:55 50.33709 10.30306 24001 ft 411 kts 314°
2026-05-04 22:56 50.35679 10.27064 24001 ft 411 kts 311°
2026-05-04 22:56 50.37503 10.23630 24005 ft 410 kts 308°
2026-05-04 22:56 50.39347 10.20177 24139 ft 417 kts 313°
2026-05-04 22:56 50.41386 10.16913 24687 ft 419 kts 315°
2026-05-04 22:57 50.43450 10.13705 25314 ft 418 kts 315°
2026-05-04 22:57 50.45488 10.10433 25824 ft 421 kts 313°
2026-05-04 22:57 50.47484 10.07026 26207 ft 426 kts 312°
2026-05-04 22:57 50.49481 10.03553 26579 ft 431 kts 312°
2026-05-04 22:58 50.51495 10.00067 27180 ft 429 kts 312°
2026-05-04 22:58 50.53501 9.96623 27853 ft 425 kts 312°
2026-05-04 22:58 50.55470 9.93174 28463 ft 423 kts 310°
2026-05-04 22:58 50.57360 9.89623 28988 ft 423 kts 309°
2026-05-04 22:59 50.59219 9.86035 29501 ft 423 kts 309°
2026-05-04 22:59 50.61071 9.82457 29980 ft 423 kts 309°
2026-05-04 22:59 50.64784 9.75368 30000 ft 420 kts 309°
2026-05-04 23:00 50.68512 9.68261 30001 ft 422 kts 309°
2026-05-04 23:00 50.72033 9.60849 29995 ft 423 kts 298°
2026-05-04 23:01 50.74073 9.52183 30010 ft 422 kts 282°
2026-05-04 23:01 50.75249 9.43059 29997 ft 422 kts 281°
2026-05-04 23:02 50.76447 9.34041 29996 ft 419 kts 282°
2026-05-04 23:02 50.77657 9.25061 29999 ft 414 kts 282°
2026-05-04 23:03 50.78823 9.16360 29869 ft 417 kts 282°
2026-05-04 23:03 50.79419 9.11884 29513 ft 414 kts 282°
2026-05-04 23:03 50.80007 9.07452 29050 ft 410 kts 282°
2026-05-04 23:04 50.80587 9.03065 28604 ft 406 kts 282°
2026-05-04 23:04 50.81161 8.98722 28146 ft 402 kts 282°
2026-05-04 23:04 50.81727 8.94415 27691 ft 399 kts 282°
2026-05-04 23:04 50.82316 8.90150 27228 ft 395 kts 285°
2026-05-04 23:05 50.83234 8.86076 26767 ft 392 kts 295°
2026-05-04 23:05 50.84477 8.82255 26329 ft 389 kts 298°
2026-05-04 23:05 50.85326 8.79761 26024 ft 387 kts 298°
2026-05-04 23:05 50.87037 8.74778 25425 ft 384 kts 298°
2026-05-04 23:06 50.88301 8.71070 24976 ft 381 kts 298°
2026-05-04 23:06 50.89543 8.67386 24535 ft 378 kts 298°
2026-05-04 23:06 50.90772 8.63714 24095 ft 376 kts 297°
2026-05-04 23:06 50.91986 8.60066 23657 ft 373 kts 297°
2026-05-04 23:07 50.93189 8.56437 23220 ft 371 kts 297°
2026-05-04 23:07 50.94382 8.52831 22789 ft 368 kts 297°
2026-05-04 23:07 50.95565 8.49250 22360 ft 366 kts 297°
2026-05-04 23:07 50.96742 8.45683 21931 ft 363 kts 297°
2026-05-04 23:08 50.97911 8.42139 21503 ft 361 kts 297°
2026-05-04 23:08 50.99069 8.38621 21086 ft 359 kts 297°
2026-05-04 23:08 51.00220 8.35122 20663 ft 356 kts 298°
2026-05-04 23:08 51.01608 8.31885 20231 ft 355 kts 311°
2026-05-04 23:09 51.03383 8.29194 19826 ft 352 kts 322°
2026-05-04 23:09 51.05450 8.27126 19403 ft 350 kts 331°
2026-05-04 23:09 51.07579 8.25297 18988 ft 348 kts 331°
2026-05-04 23:09 51.09711 8.23466 18572 ft 346 kts 331°
2026-05-04 23:10 51.11790 8.21650 18164 ft 344 kts 330°
2026-05-04 23:10 51.13873 8.19801 17752 ft 342 kts 330°
2026-05-04 23:10 51.15949 8.17947 17341 ft 340 kts 330°
2026-05-04 23:10 51.18005 8.16106 16938 ft 338 kts 330°
2026-05-04 23:11 51.20049 8.14273 16536 ft 336 kts 330°
2026-05-04 23:11 51.22082 8.12450 16135 ft 334 kts 330°
2026-05-04 23:11 51.24102 8.10637 15736 ft 332 kts 330°
2026-05-04 23:11 51.26115 8.08829 15338 ft 330 kts 330°
2026-05-04 23:12 51.28114 8.07031 14942 ft 329 kts 330°
2026-05-04 23:12 51.30099 8.05244 14550 ft 327 kts 330°
2026-05-04 23:12 51.31435 8.04041 14286 ft 326 kts 330°
2026-05-04 23:13 51.37904 7.98204 12998 ft 320 kts 330°
2026-05-04 23:13 51.39837 7.96456 12607 ft 318 kts 330°
2026-05-04 23:13 51.41759 7.94721 12225 ft 316 kts 330°
2026-05-04 23:14 51.43673 7.93016 11851 ft 314 kts 330°
2026-05-04 23:14 51.45521 7.91201 11459 ft 312 kts 319°
2026-05-04 23:14 51.46843 7.88490 11093 ft 309 kts 295°
2026-05-04 23:14 51.47363 7.85185 10729 ft 306 kts 272°
2026-05-04 23:15 51.47099 7.81826 10392 ft 303 kts 255°
2026-05-04 23:15 51.46519 7.78639 10343 ft 290 kts 253°
2026-05-04 23:15 51.45966 7.75663 10388 ft 270 kts 253°
2026-05-04 23:15 51.45451 7.72860 10275 ft 255 kts 253°
2026-05-04 23:16 51.44965 7.70176 10018 ft 247 kts 254°
2026-05-04 23:16 51.44497 7.67562 9733 ft 241 kts 254°
2026-05-04 23:16 51.44042 7.65014 9455 ft 236 kts 254°
2026-05-04 23:16 51.43595 7.62511 9170 ft 231 kts 254°
2026-05-04 23:17 51.43158 7.60066 8885 ft 227 kts 254°
2026-05-04 23:17 51.42727 7.57659 8615 ft 223 kts 254°
2026-05-04 23:17 51.42302 7.55291 8335 ft 219 kts 254°
2026-05-04 23:17 51.41865 7.52982 8073 ft 215 kts 250°
2026-05-04 23:18 51.41331 7.50803 7821 ft 211 kts 248°
2026-05-04 23:18 51.40774 7.48662 7589 ft 207 kts 248°
2026-05-04 23:18 51.40211 7.46503 7344 ft 217 kts 248°
2026-05-04 23:18 51.39583 7.44083 7159 ft 257 kts 248°
2026-05-04 23:19 51.38868 7.41320 6826 ft 274 kts 248°
2026-05-04 23:19 51.38141 7.38504 6518 ft 273 kts 248°
2026-05-04 23:19 51.37420 7.35704 6202 ft 272 kts 248°
2026-05-04 23:19 51.36690 7.32871 5893 ft 270 kts 248°
2026-05-04 23:20 51.35977 7.30099 5608 ft 269 kts 248°
2026-05-04 23:20 51.35276 7.27377 5311 ft 268 kts 248°
2026-05-04 23:20 51.34558 7.24597 5027 ft 266 kts 248°
2026-05-04 23:20 51.33863 7.21910 4764 ft 264 kts 248°
2026-05-04 23:21 51.33209 7.19255 4706 ft 249 kts 255°
2026-05-04 23:21 51.33153 7.16608 4590 ft 233 kts 281°
2026-05-04 23:21 51.33642 7.14221 4490 ft 219 kts 292°
2026-05-04 23:21 51.34237 7.12047 4372 ft 207 kts 294°
2026-05-04 23:22 51.34807 7.10005 4299 ft 196 kts 293°
2026-05-04 23:22 51.35340 7.08065 4180 ft 187 kts 293°
2026-05-04 23:22 51.35859 7.06159 4076 ft 187 kts 293°
2026-05-04 23:22 51.36364 7.04281 4029 ft 179 kts 293°
2026-05-04 23:23 51.36844 7.02495 3968 ft 171 kts 293°
2026-05-04 23:23 51.37307 7.00762 3727 ft 169 kts 293°
2026-05-04 23:23 51.37769 6.99026 3454 ft 169 kts 291°
2026-05-04 23:23 51.37838 6.97202 3157 ft 169 kts 247°
2026-05-04 23:24 51.37278 6.95553 3109 ft 172 kts 241°
2026-05-04 23:24 51.36681 6.93911 3043 ft 169 kts 240°
2026-05-04 23:24 51.36111 6.92268 2840 ft 170 kts 243°
2026-05-04 23:24 51.35492 6.90636 2433 ft 172 kts 236°
2026-05-04 23:25 51.34700 6.89223 2107 ft 170 kts 226°
2026-05-04 23:25 51.33942 6.87787 1731 ft 168 kts 233°
2026-05-04 23:25 51.33243 6.86316 1430 ft 163 kts 233°
2026-05-04 23:25 51.32573 6.84904 1195 ft 155 kts 233°
2026-05-04 23:26 51.31941 6.83577 991 ft 145 kts 233°
2026-05-04 23:26 51.31340 6.82313 824 ft 144 kts 233°
2026-05-04 23:26 51.30734 6.81038 619 ft 145 kts 233°
2026-05-04 23:26 51.30124 6.79756 415 ft 144 kts 233°
2026-05-04 23:27 51.29519 6.78480 193 ft 142 kts 233°
2026-05-04 23:27 51.28957 6.77286 137 ft 119 kts 232°
2026-05-04 23:27 51.28557 6.76452 132 ft 86 kts 232°
2026-05-04 23:27 51.28267 6.75989 132 ft 37 kts 198°
2026-05-04 23:28 51.28169 6.75933 134 ft 0 kts 205°
2026-05-04 23:29 51.28165 6.75930 134 ft 2 kts 205°
2026-05-04 23:30 51.28145 6.75914 134 ft 4 kts 205°
2026-05-04 23:30 51.28112 6.75889 133 ft 7 kts 205°
2026-05-04 23:30 51.28058 6.75847 126 ft 11 kts 207°
2026-05-04 23:30 51.28001 6.75755 124 ft 12 kts 236°
2026-05-04 23:31 51.27952 6.75645 127 ft 13 kts 229°
2026-05-04 23:31 51.27873 6.75625 123 ft 13 kts 147°
2026-05-04 23:31 51.27856 6.75745 124 ft 11 kts 84°
2026-05-04 23:31 51.27847 6.75903 109 ft 22 kts 97°
2026-05-04 23:32 51.27806 6.76108 113 ft 13 kts 137°
2026-05-04 23:32 51.27757 6.76147 123 ft 5 kts 159°
2026-05-04 23:32 51.27751 6.76150 125 ft 0 kts 159°